W4SNA-3 Weather Reports


Display with metric or nautical units.
time (UTC)temp
F
wind
direction
speed
MPH
gust
MPH
rain 1hr
in
rain 24hr
in
rain mn
in
humidity
%
barometer
mb
20260904204129 85 0 0.0 3.0 0.00 0.00 0.00 66 1017.9
20260904203622 86 65 1.0 3.0 0.00 0.00 0.00 65 1017.8
20260904203122 86 0 0.0 2.0 0.00 0.00 0.00 68 1017.8
20260904202622 85 0 0.0 2.0 0.00 0.00 0.00 69 1017.7
20260904202122 85 0 0.0 2.0 0.00 0.00 0.00 70 1018.0
20260904201622 85 0 0.0 3.0 0.00 0.00 0.00 69 1018.0
20260904201122 85 66 1.0 3.0 0.00 0.00 0.00 69 1017.8
20260904200623 85 72 1.0 3.0 0.00 0.00 0.00 71 1017.7
20260904200129 86 77 1.0 2.0 0.00 0.00 0.00 70 1017.8
20260904195629 86 0 0.0 2.0 0.00 0.00 0.00 69 1017.9
20260904195122 86 0 0.0 1.0 0.00 0.00 0.00 69 1018.0
20260904194623 87 0 0.0 0.0 0.00 0.00 0.00 69 1018.1
20260904194123 87 0 0.0 0.0 0.00 0.00 0.00 68 1018.1
20260904193419 87 0 0.0 1.0 0.00 0.00 0.00 67 1018.1
20260904192928 87 0 0.0 2.0 0.00 0.00 0.00 67 1018.2
20260904192420 88 0 0.0 2.0 0.00 0.00 0.00 65 1018.3
20260904191443 88 0 0.0 2.0 0.00 0.00 0.00 64 1018.3
20260904190943 88 0 0.0 2.0 0.00 0.00 0.00 65 1018.4
20260904190456 88 0 0.0 2.0 0.00 0.00 0.00 63 1018.5
20260904190006 89 0 0.0 2.0 0.00 0.00 0.00 62 1018.6
20260904185443 89 0 0.0 2.0 0.00 0.00 0.00 61 1018.7
20260904184943 90 0 0.0 2.0 0.00 0.00 0.00 61 1018.8
20260904184443 90 0 0.0 3.0 0.00 0.00 0.00 62 1018.7
20260904183943 90 0 0.0 3.0 0.00 0.00 0.00 60 1018.9
20260904183443 90 0 0.0 2.0 0.00 0.00 0.00 65 1018.9
20260904182950 90 0 0.0 2.0 0.00 0.00 0.00 61 1018.9
20260904182443 90 0 0.0 2.0 0.00 0.00 0.00 61 1018.9
20260904182023 90 0 0.0 2.0 0.00 0.00 0.00 62 1019.2
20260904181515 90 0 0.0 2.0 0.00 0.00 0.00 62 1019.3
20260904180830 90 0 0.0 2.0 0.00 0.00 0.00 62 1019.4
20260904180335 90 0 0.0 3.0 0.00 0.00 0.00 61 1019.4
20260904175832 90 0 0.0 3.0 0.00 0.00 0.00 60 1019.6
20260904175338 90 0 0.0 2.0 0.00 0.00 0.00 60 1019.5
20260904174830 91 0 0.0 2.0 0.00 0.00 0.00 61 1019.5
20260904173703 91 0 0.0 3.0 0.00 0.00 0.00 59 1019.7
20260904173204 91 0 0.0 2.0 0.00 0.00 0.00 59 1019.6
20260904172231 91 0 0.0 5.0 0.00 0.00 0.00 59 1019.8
20260904171731 91 86 1.0 3.0 0.00 0.00 0.00 57 1019.9
20260904171240 91 0 0.0 3.0 0.00 0.00 0.00 58 1019.9
20260904170731 92 41 1.0 3.0 0.00 0.00 0.00 57 1019.8
20260904170231 92 0 0.0 3.0 0.00 0.00 0.00 58 1019.9
20260904165731 92 0 0.0 3.0 0.00 0.00 0.00 57 1019.9
20260904165231 92 0 0.0 3.0 0.00 0.00 0.00 59 1020.1
20260904164742 92 55 1.0 5.0 0.00 0.00 0.00 59 1020.1
20260904164231 92 61 1.0 5.0 0.00 0.00 0.00 58 1020.0
20260904163731 92 0 0.0 4.0 0.00 0.00 0.00 60 1020.0
20260904163231 91 0 0.0 4.0 0.00 0.00 0.00 61 1020.1
20260904162731 91 0 0.0 4.0 0.00 0.00 0.00 60 1019.3
20260904162239 91 54 1.0 4.0 0.00 0.00 0.00 62 1019.3
20260904161731 91 55 1.0 4.0 0.00 0.00 0.00 61 1019.4
20260904161231 90 0 0.0 3.0 0.00 0.00 0.00 62 1019.3
20260904160420 90 57 1.0 4.0 0.00 0.00 0.00 62 1019.4
20260904155921 90 63 1.0 3.0 0.00 0.00 0.00 61 1019.4
20260904155422 90 0 0.0 2.0 0.00 0.00 0.00 64 1019.3
20260904154928 90 0 0.0 5.0 0.00 0.00 0.00 62 1019.4
20260904154420 89 71 1.0 5.0 0.00 0.00 0.00 61 1019.4
20260904153727 89 0 0.0 2.0 0.00 0.00 0.00 63 1019.4
20260904153218 89 0 0.0 3.0 0.00 0.00 0.00 63 1019.4
20260904152726 89 77 1.0 4.0 0.00 0.00 0.00 64 1019.5
20260904152229 89 17 1.0 4.0 0.00 0.00 0.00 64 1019.4
20260904151718 89 60 1.0 3.0 0.00 0.00 0.00 63 1019.3
20260904151218 88 63 1.0 4.0 0.00 0.00 0.00 64 1019.4
20260904150718 88 0 0.0 4.0 0.00 0.00 0.00 64 1019.5
20260904150218 88 0 0.0 4.0 0.00 0.00 0.00 63 1019.5
20260904145718 88 67 1.0 3.0 0.00 0.00 0.00 63 1019.4
20260904145218 88 0 0.0 4.0 0.00 0.00 0.00 65 1019.3
20260904144720 88 60 1.0 4.0 0.00 0.00 0.00 64 1019.4
20260904144227 88 57 1.0 3.0 0.00 0.00 0.00 65 1019.5
20260904143724 87 0 0.0 3.0 0.00 0.00 0.00 65 1019.4
20260904143218 87 0 0.0 3.0 0.00 0.00 0.00 65 1019.5
20260904142718 87 59 1.0 3.0 0.00 0.00 0.00 66 1019.4
20260904142218 87 54 1.0 3.0 0.00 0.00 0.00 67 1019.4
20260904141722 87 55 1.0 3.0 0.00 0.00 0.00 67 1019.4
20260904141218 86 73 1.0 3.0 0.00 0.00 0.00 68 1019.3
20260904140718 86 0 0.0 3.0 0.00 0.00 0.00 68 1019.4
20260904135907 85 0 0.0 3.0 0.00 0.00 0.00 69 1019.3
20260904135407 85 80 1.0 3.0 0.00 0.00 0.00 69 1019.3
20260904134909 85 92 1.0 4.0 0.00 0.00 0.00 70 1019.4
20260904134407 84 100 1.0 6.0 0.00 0.00 0.00 70 1019.4
20260904133907 84 94 1.0 6.0 0.00 0.00 0.00 70 1019.3
20260904133013 84 0 0.0 2.0 0.00 0.00 0.00 71 1019.4
20260904132522 83 0 0.0 2.0 0.00 0.00 0.00 72 1019.3
20260904132013 83 0 0.0 2.0 0.00 0.00 0.00 73 1019.4
20260904131517 82 0 0.0 2.0 0.00 0.00 0.00 73 1019.4
20260904131013 82 0 0.0 2.0 0.00 0.00 0.00 74 1019.5
20260904130516 81 0 0.0 2.0 0.00 0.00 0.00 73 1019.4
20260904130031 81 56 1.0 2.0 0.00 0.00 0.00 74 1019.5
20260904125513 80 0 0.0 2.0 0.00 0.00 0.00 75 1019.5
20260904125014 80 0 0.0 0.0 0.00 0.00 0.00 76 1019.6
20260904124513 79 0 0.0 0.0 0.00 0.00 0.00 77 1019.5
20260904124014 78 0 0.0 2.0 0.00 0.00 0.00 78 1019.6
20260904123515 77 0 0.0 2.0 0.00 0.00 0.00 80 1019.6
20260904123019 77 0 0.0 3.0 0.00 0.00 0.00 81 1019.5
20260904122513 76 0 0.0 3.0 0.00 0.00 0.00 81 1019.4
20260904122017 75 0 0.0 2.0 0.00 0.00 0.00 83 1019.4
20260904121515 74 8 1.0 2.0 0.00 0.00 0.00 84 1019.3
20260904121017 73 0 0.0 3.0 0.00 0.00 0.00 85 1019.3
20260904120513 73 8 1.0 3.0 0.00 0.00 0.00 86 1019.3
20260904120013 72 0 0.0 3.0 0.00 0.00 0.00 86 1019.2
20260904115513 72 8 1.0 3.0 0.00 0.00 0.00 87 1019.2
20260904114800 72 8 1.0 3.0 0.00 0.00 0.00 87 1019.2
20260904114300 71 8 1.0 3.0 0.00 0.00 0.00 87 1019.1
20260904113642 71 8 1.0 3.0 0.00 0.00 0.00 87 1019.0
20260904113142 71 9 1.0 3.0 0.00 0.00 0.00 87 1019.0
20260904112642 71 19 1.0 3.0 0.00 0.00 0.00 87 1019.1
20260904112154 71 19 1.0 3.0 0.00 0.00 0.00 87 1019.1
20260904111642 71 19 1.0 3.0 0.00 0.00 0.00 87 1019.0
20260904111142 71 19 1.0 3.0 0.00 0.00 0.00 87 1019.0
20260904110642 71 19 1.0 2.0 0.00 0.00 0.00 87 1019.0
20260904110142 71 0 0.0 3.0 0.00 0.00 0.00 87 1019.0
20260904105642 71 0 0.0 3.0 0.00 0.00 0.00 87 1018.9
20260904105143 71 0 0.0 2.0 0.00 0.00 0.00 87 1018.9
20260904104645 71 0 0.0 2.0 0.00 0.00 0.00 87 1018.8
20260904104142 71 0 0.0 2.0 0.00 0.00 0.00 87 1018.9
20260904103642 71 0 0.0 2.0 0.00 0.00 0.00 87 1018.9
20260904103142 71 0 0.0 2.0 0.00 0.00 0.00 86 1018.9
20260904102654 71 0 0.0 2.0 0.00 0.00 0.00 86 1018.9
20260904102143 71 19 1.0 2.0 0.00 0.00 0.00 86 1018.9
20260904101642 71 0 0.0 2.0 0.00 0.00 0.00 86 1018.8
20260904101155 71 0 0.0 2.0 0.00 0.00 0.00 85 1018.9
20260904100331 72 0 0.0 1.0 0.00 0.00 0.00 85 1018.7
20260904095831 72 0 0.0 2.0 0.00 0.00 0.00 85 1018.5
20260904095331 72 0 0.0 2.0 0.00 0.00 0.00 85 1018.5
20260904094831 72 0 0.0 3.0 0.00 0.00 0.00 85 1018.5
20260904094332 72 0 0.0 3.0 0.00 0.00 0.00 84 1018.5
20260904093451 72 19 1.0 3.0 0.00 0.00 0.00 84 1018.6
20260904092951 72 21 1.0 3.0 0.00 0.00 0.00 84 1018.5
20260904092451 72 21 1.0 3.0 0.00 0.00 0.00 84 1018.5
20260904091951 72 22 1.0 4.0 0.00 0.00 0.00 84 1018.4
20260904091451 72 22 1.0 4.0 0.00 0.00 0.00 85 1018.5
20260904090953 72 46 1.0 3.0 0.00 0.00 0.00 85 1018.4
20260904090451 72 48 1.0 3.0 0.00 0.00 0.00 84 1018.3
20260904090003 72 49 1.0 3.0 0.00 0.00 0.00 84 1018.3
20260904085451 72 50 1.0 3.0 0.00 0.00 0.00 84 1018.2
20260904084951 72 54 1.0 3.0 0.00 0.00 0.00 84 1018.3
20260904084451 72 55 2.0 4.0 0.00 0.00 0.00 83 1018.2
20260904083951 72 56 2.0 4.0 0.00 0.00 0.00 83 1018.2
20260904083456 72 57 2.0 4.0 0.00 0.00 0.00 83 1018.3
20260904082951 72 58 2.0 4.0 0.00 0.00 0.00 83 1018.2
20260904082451 72 58 2.0 4.0 0.00 0.00 0.00 83 1018.3
20260904081954 72 58 2.0 4.0 0.00 0.00 0.00 82 1018.3
20260904081517 72 58 1.0 4.0 0.00 0.00 0.00 82 1018.2
20260904080951 72 58 2.0 4.0 0.00 0.00 0.00 82 1018.1
20260904080451 72 58 2.0 4.0 0.00 0.00 0.00 82 1018.1
20260904080006 72 60 2.0 3.0 0.00 0.00 0.00 82 1018.1
20260904075453 72 72 2.0 3.0 0.00 0.00 0.00 83 1018.1
20260904075000 72 77 1.0 5.0 0.00 0.00 0.00 83 1018.1
20260904074451 72 81 1.0 5.0 0.00 0.00 0.00 83 1018.1
20260904073951 72 81 1.0 3.0 0.00 0.00 0.00 83 1018.2
20260904073451 72 81 1.0 3.0 0.00 0.00 0.00 83 1018.1
20260904072952 72 82 1.0 3.0 0.00 0.00 0.00 83 1018.2
20260904072452 72 82 1.0 3.0 0.00 0.00 0.00 83 1018.2
20260904071954 72 82 1.0 3.0 0.00 0.00 0.00 83 1018.2
20260904071451 72 82 1.0 2.0 0.00 0.00 0.00 84 1018.3
20260904070951 72 82 1.0 3.0 0.00 0.00 0.00 84 1018.4
20260904070451 72 82 1.0 3.0 0.00 0.00 0.00 84 1018.4
20260904065952 72 82 1.0 3.0 0.00 0.00 0.00 85 1018.5
20260904065451 72 82 1.0 3.0 0.00 0.00 0.00 85 1018.5
20260904064952 72 82 1.0 3.0 0.00 0.00 0.00 85 1018.6
20260904064504 72 82 1.0 3.0 0.00 0.00 0.00 85 1018.6
20260904063951 72 82 1.0 3.0 0.00 0.00 0.00 85 1018.6
20260904063459 72 82 1.0 3.0 0.00 0.00 0.00 85 1018.6
20260904062951 72 0 0.0 2.0 0.00 0.00 0.00 85 1018.7
20260904062507 72 0 0.0 2.0 0.00 0.00 0.00 85 1018.8
20260904061954 72 0 0.0 2.0 0.00 0.00 0.00 85 1018.9
20260904061451 72 0 0.0 2.0 0.00 0.00 0.00 85 1019.0
20260904060951 72 0 0.0 2.0 0.00 0.00 0.00 85 1019.1
20260904060531 72 0 0.0 2.0 0.00 0.00 0.00 85 1019.2
20260904055951 72 0 0.0 2.0 0.00 0.00 0.00 85 1019.2
20260904055451 72 0 0.0 2.0 0.00 0.00 0.00 85 1019.5
20260904054954 72 0 0.0 1.0 0.00 0.00 0.00 85 1019.6
20260904054451 72 0 0.0 2.0 0.00 0.00 0.00 85 1019.6
20260904054021 72 0 0.0 2.0 0.00 0.00 0.00 85 1019.7
20260904053451 72 0 0.0 2.0 0.00 0.00 0.00 86 1019.8
20260904052951 72 0 0.0 2.0 0.00 0.00 0.00 86 1019.9
20260904052511 73 0 0.0 2.0 0.00 0.00 0.00 86 1020.0
20260904051951 73 0 0.0 2.0 0.00 0.00 0.00 85 1019.9
20260904051451 73 0 0.0 2.0 0.00 0.00 0.00 85 1020.0
20260904050626 73 0 0.0 1.0 0.00 0.00 0.00 85 1020.1
20260904050116 73 0 0.0 2.0 0.00 0.00 0.00 85 1020.1
20260904045616 73 0 0.0 2.0 0.00 0.00 0.00 85 1020.2
20260904045118 73 0 0.0 3.0 0.00 0.00 0.00 84 1020.2
20260904044616 74 0 0.0 3.0 0.00 0.00 0.00 84 1020.3
20260904044116 74 0 0.0 2.0 0.00 0.00 0.00 83 1020.2
20260904043616 74 0 0.0 2.0 0.00 0.00 0.00 83 1020.2
20260904043123 74 0 0.0 2.0 0.00 0.00 0.00 83 1020.3
20260904042616 74 0 0.0 2.0 0.00 0.00 0.00 82 1020.1
20260904042123 74 0 0.0 1.0 0.00 0.00 0.00 82 1020.2
20260904041618 74 0 0.0 1.0 0.00 0.00 0.00 82 1020.3
20260904041120 74 0 0.0 2.0 0.00 0.00 0.00 82 1020.3
20260904040626 74 0 0.0 2.0 0.00 0.00 0.00 82 1020.3
20260904040123 74 0 0.0 2.0 0.00 0.00 0.00 82 1020.1
20260904035616 74 0 0.0 2.0 0.00 0.00 0.00 82 1020.1
20260904034946 74 0 0.0 1.0 0.00 0.00 0.00 82 1020.1
20260904034446 75 0 0.0 1.0 0.00 0.00 0.00 82 1020.0
20260904033906 75 0 0.0 2.0 0.00 0.00 0.00 83 1020.0
20260904033406 75 0 0.0 2.0 0.00 0.00 0.00 82 1020.1
20260904032905 75 0 0.0 1.0 0.00 0.00 0.00 82 1020.2
20260904032407 75 0 0.0 1.0 0.00 0.00 0.00 82 1020.3
20260904031907 75 0 0.0 2.0 0.00 0.00 0.00 81 1020.1
20260904031406 75 0 0.0 2.0 0.00 0.00 0.00 81 1020.2
20260904030905 75 0 0.0 3.0 0.00 0.00 0.00 80 1020.1
20260904030407 75 0 0.0 3.0 0.00 0.00 0.00 80 1020.2
20260904025912 75 0 0.0 2.0 0.00 0.00 0.00 80 1020.1
20260904025017 75 0 0.0 2.0 0.00 0.00 0.00 79 1020.2
20260904024533 75 0 0.0 0.0 0.00 0.00 0.00 79 1020.2
20260904024017 75 0 0.0 0.0 0.00 0.00 0.00 79 1020.2
20260904023526 75 0 0.0 0.0 0.00 0.00 0.00 78 1020.2
20260904023019 75 0 0.0 0.0 0.00 0.00 0.00 78 1020.2
20260904022518 75 0 0.0 0.0 0.00 0.00 0.00 78 1020.2
20260904022027 75 0 0.0 0.0 0.00 0.00 0.00 77 1020.2
20260904021154 75 0 0.0 0.0 0.00 0.00 0.00 77 1020.3
20260904020657 75 0 0.0 0.0 0.00 0.00 0.00 76 1020.3
20260904020159 75 0 0.0 0.0 0.00 0.00 0.00 76 1020.3
20260904015654 75 0 0.0 0.0 0.00 0.00 0.00 75 1020.3
20260904015154 75 0 0.0 0.0 0.00 0.00 0.00 75 1020.3
20260904014655 75 0 0.0 0.0 0.00 0.00 0.00 75 1020.2
20260904014154 75 0 0.0 0.0 0.00 0.00 0.00 75 1020.2
20260904013654 75 0 0.0 0.0 0.00 0.00 0.00 75 1020.3
20260904013154 75 0 0.0 0.0 0.00 0.00 0.00 75 1020.3
20260904012654 75 0 0.0 0.0 0.00 0.00 0.00 75 1020.1
20260904012154 75 0 0.0 0.0 0.00 0.00 0.00 75 1020.1
20260904011654 75 0 0.0 0.0 0.00 0.00 0.00 74 1020.0
20260904011155 75 0 0.0 0.0 0.00 0.00 0.00 75 1020.1
20260904010654 75 0 0.0 0.0 0.00 0.00 0.00 76 1019.9
20260904010157 76 0 0.0 0.0 0.00 0.00 0.00 76 1019.8
20260904005654 76 0 0.0 0.0 0.00 0.00 0.00 77 1019.7
20260904005154 76 0 0.0 0.0 0.00 0.00 0.00 78 1019.8
20260904004654 76 0 0.0 0.0 0.00 0.00 0.00 78 1019.7
20260904004154 76 0 0.0 0.0 0.00 0.00 0.00 78 1019.6
20260904003654 76 0 0.0 0.0 0.00 0.00 0.00 78 1019.6
20260904002859 76 0 0.0 0.0 0.00 0.00 0.00 77 1019.5
20260904002400 76 0 0.0 0.0 0.00 0.00 0.00 77 1019.4
20260904001859 76 0 0.0 0.0 0.00 0.00 0.00 76 1019.4
20260904001400 76 0 0.0 0.0 0.00 0.00 0.00 76 1019.1
20260904000859 76 0 0.0 0.0 0.00 0.00 0.00 75 1019.0
20260904000417 77 0 0.0 0.0 0.00 0.00 0.00 75 1019.0
20260903235859 77 0 0.0 0.0 0.00 0.00 0.00 74 1018.9
20260903235400 77 0 0.0 0.0 0.00 0.00 0.00 74 1018.8
20260903234859 77 0 0.0 0.0 0.00 0.00 0.00 74 1018.8
20260903234415 78 0 0.0 0.0 0.00 0.00 0.00 74 1018.9
20260903233859 78 0 0.0 0.0 0.00 0.00 0.00 74 1018.9
20260903233400 78 0 0.0 0.0 0.00 0.00 0.00 75 1018.9
20260903232900 79 0 0.0 0.0 0.00 0.00 0.00 75 1018.7
20260903232401 79 0 0.0 0.0 0.00 0.00 0.00 75 1018.7
20260903231900 79 0 0.0 0.0 0.00 0.00 0.00 74 1018.8
20260903231401 79 0 0.0 0.0 0.00 0.00 0.00 74 1018.7
20260903230623 80 0 0.0 0.0 0.00 0.00 0.00 75 1018.8
20260903230123 80 0 0.0 0.0 0.00 0.00 0.00 75 1018.7
20260903225623 80 0 0.0 0.0 0.00 0.00 0.00 74 1018.8
20260903225124 80 0 0.0 0.0 0.00 0.00 0.00 74 1018.7
20260903224623 81 0 0.0 0.0 0.00 0.00 0.00 74 1018.6
20260903224125 81 0 0.0 0.0 0.00 0.00 0.00 73 1018.7
20260903223623 81 0 0.0 0.0 0.00 0.00 0.00 72 1018.7
20260903223123 81 0 0.0 0.0 0.00 0.00 0.00 72 1018.7
20260903222622 82 0 0.0 0.0 0.00 0.00 0.00 71 1018.8
20260903222123 82 0 0.0 0.0 0.00 0.00 0.00 69 1018.6
20260903221623 82 0 0.0 0.0 0.00 0.00 0.00 69 1018.7
20260903221123 82 0 0.0 0.0 0.00 0.00 0.00 68 1018.8
20260903220337 83 0 0.0 0.0 0.00 0.00 0.00 67 1018.7
20260903215805 84 0 0.0 0.0 0.00 0.00 0.00 65 1018.7
20260903215305 84 0 0.0 0.0 0.00 0.00 0.00 67 1018.7
20260903214802 84 0 0.0 0.0 0.00 0.00 0.00 66 1018.8
20260903214302 85 0 0.0 0.0 0.00 0.00 0.00 65 1018.8
20260903213805 85 0 0.0 0.0 0.00 0.00 0.00 64 1018.8
20260903213304 85 0 0.0 0.0 0.00 0.00 0.00 63 1018.7
20260903212814 85 0 0.0 0.0 0.00 0.00 0.00 63 1018.8
20260903212314 85 0 0.0 0.0 0.00 0.00 0.00 64 1018.8
20260903211804 85 0 0.0 0.0 0.00 0.00 0.00 63 1019.0
20260903211307 85 0 0.0 1.0 0.00 0.00 0.00 64 1019.1
20260903210802 85 0 0.0 1.0 0.00 0.00 0.00 65 1019.1
20260903210304 85 0 0.0 0.0 0.00 0.00 0.00 63 1019.1
20260903205802 85 0 0.0 0.0 0.00 0.00 0.00 62 1019.3
20260903205306 85 0 0.0 1.0 0.00 0.00 0.00 63 1019.2
20260903204802 85 0 0.0 1.0 0.00 0.00 0.00 62 1019.2
20260903204304 85 0 0.0 0.0 0.00 0.00 0.00 64 1019.3